Weather History for Cincinnati, OH

Change the Weather History Date:

Tuesday, February 18, 2014

  Actual Average Record
Temperature  
Mean Temperature 42 °F -  
Max Temperature 50 °F 48 °F 68 °F (1992)
Min Temperature 33 °F 26 °F 2 °F (1958)
Degree Days  
Heating Degree Days 24    
Moisture  
Dew Point 28 °F    
Average Humidity 65    
Maximum Humidity 82    
Minimum Humidity 38    
Precipitation  
Precipitation 0.00 in - - ()
Sea Level Pressure  
Sea Level Pressure 30.01 in    
Wind  
Wind Speed 10 mph (SSW)    
Max Wind Speed 16 mph    
Max Gust Speed 26 mph    
Visibility 10 miles    
Events      
Averages and records for this station are not official NWS values.
T = Trace of Precipitation, MM = Missing Value Source: NWS Daily Summary

Daily Weather History Graph

Daily Weather History Graph

Search for Another Location

Airport:

Trip Planner

Search our weather history database for the weather conditions in past years. The results will help you decide how hot, cold, wet, or windy it might be!

Date:

Astronomy

Feb. 18, 2014 Rise Set
Actual Time 7:25 AM EST 6:18 PM EST
Civil Twilight 6:58 AM EST 6:45 PM EST
Nautical Twilight 6:27 AM EST 7:16 PM EST
Astronomical Twilight 5:56 AM EST 7:47 PM EST
Moon 10:08 PM EST (2/18) 8:59 AM EST (2/18)
Length of Visible Light 11h 47m
Length of Day
10h 52m
Waning Gibbous, 87% of the Moon is Illuminated
Feb 18
Waning Gibbous
Feb 22
Last Quarter
Mar 1
New
Mar 8
First Quarter
Mar 16
Full

Hourly Weather History & Observations

Time (EST) Temp. Windchill Dew Point Humidity Pressure Visibility Wind Dir Wind Speed Gust Speed Precip Events Conditions
12:46 AM 37.0 °F 27.7 °F 30.0 °F 76% 29.96 in 10.0 mi SSW 16.1 mph 26.5 mph N/A   Scattered Clouds
12:53 AM 37.0 °F 28.9 °F 30.0 °F 76% 29.98 in 10.0 mi SSW 12.7 mph - N/A   Scattered Clouds
1:53 AM 36.0 °F 27.5 °F 30.0 °F 79% 29.98 in 10.0 mi SSW 12.7 mph 21.9 mph N/A   Clear
2:53 AM 36.0 °F 28.0 °F 28.9 °F 76% 29.99 in 10.0 mi SW 11.5 mph - N/A   Clear
3:53 AM 37.0 °F 28.9 °F 28.0 °F 70% 30.01 in 10.0 mi SSW 12.7 mph - N/A   Clear
4:53 AM 37.0 °F 30.4 °F 28.0 °F 70% 30.04 in 10.0 mi SW 9.2 mph - N/A   Clear
5:53 AM 35.1 °F 27.9 °F 27.0 °F 72% 30.08 in 10.0 mi SW 9.2 mph - N/A   Clear
6:53 AM 35.1 °F 28.6 °F 27.0 °F 72% 30.10 in 10.0 mi SW 8.1 mph - N/A   Clear
7:53 AM 35.1 °F 30.1 °F 26.1 °F 70% 30.12 in 10.0 mi SSW 5.8 mph - N/A   Clear
8:53 AM 37.9 °F 33.5 °F 27.0 °F 65% 30.15 in 10.0 mi SW 5.8 mph - N/A   Clear
9:53 AM 39.0 °F 32.8 °F 28.0 °F 65% 30.15 in 10.0 mi SSW 9.2 mph - N/A   Clear
10:53 AM 39.9 °F 33.9 °F 28.0 °F 63% 30.16 in 10.0 mi SW 9.2 mph - N/A   Clear
11:53 AM 43.0 °F 37.7 °F 27.0 °F 53% 30.14 in 10.0 mi SSW 9.2 mph - N/A   Clear
12:53 PM 44.1 °F 38.6 °F 27.0 °F 51% 30.09 in 10.0 mi SSW 10.4 mph - N/A   Clear
1:53 PM 46.9 °F - 25.0 °F 42% 30.06 in 10.0 mi SSW 11.5 mph - N/A   Clear
2:53 PM 48.0 °F - 25.0 °F 41% 30.03 in 10.0 mi SSW 15.0 mph - N/A   Clear
3:53 PM 50.0 °F - 25.0 °F 38% 30.01 in 10.0 mi South 13.8 mph - N/A   Clear
4:53 PM 48.9 °F - 26.1 °F 41% 29.97 in 10.0 mi SSE 6.9 mph - N/A   Clear
5:53 PM 46.9 °F - 28.0 °F 48% 29.94 in 10.0 mi South 8.1 mph - N/A   Clear
6:53 PM 46.0 °F 43.9 °F 28.9 °F 51% 29.92 in 10.0 mi WSW 4.6 mph - N/A   Clear
7:53 PM 36.0 °F 33.3 °F 30.0 °F 79% 29.92 in 10.0 mi SW 3.5 mph - N/A   Clear
8:53 PM 35.1 °F - 28.9 °F 78% 29.91 in 10.0 mi Calm Calm - N/A   Clear
9:53 PM 33.1 °F - 28.0 °F 82% 29.88 in 10.0 mi Calm Calm - N/A   Clear
10:53 PM 34.0 °F 31.0 °F 28.9 °F 82% 29.86 in 10.0 mi SSW 3.5 mph - N/A   Partly Cloudy
11:53 PM 34.0 °F - 28.9 °F 82% 29.83 in 10.0 mi Calm Calm - N/A   Mostly Cloudy